This demonstration page uses our WeatherBlox Daily Observations layout. Learn more.

Left ArrowRight Arrow

30.00354, -91.81873

Hourly Observations for August 24, 2022

Temp ( °F °C ) Dew Point ( °F °C ) Humidity (%) Winds ( mph kmh ) Pressure ( in mb ) Visibility ( mi km ) Precip ( " mm )
12:53 am 00:53 Clear 76 24.4 74 23.3 94 94 SSE 6 9 29.89 1012 10 16 0.00 0.00
1:53 am 01:53 Clear 76 24.4 74 23.3 94 94 SE 5 7 29.89 1012 10 16 0.00 0.00
2:53 am 02:53 Partly Cloudy with Heavy Rain 77 25 74 23.3 90 90 SSE 6 9 29.89 1012 5 8 0.02 0.51
3:53 am 03:53 Mostly Cloudy 77 25 74 23.3 90 90 SSE 6 9 29.88 1012 10 16 0.01 0.13
4:20 am 04:20 Mostly Cloudy with Light Rain 77 25 74 23.3 90 90 SE 6 9 29.87 1011 7 11 0.01 0.13
4:53 am 04:53 Partly Cloudy 76 24.4 74 23.3 94 94 SE 5 7 29.87 1012 9 14 0.01 0.13
5:18 am 05:18 Mostly Clear 77 25 75 23.9 94 94 SE 9 15 29.87 1011 10 16 0.00 0.00
5:53 am 05:53 Partly Cloudy 76 24.4 74 23.3 94 94 Calm 29.88 1012 10 16 0.01 0.25
6:53 am 06:53 Sunny 77 25 74 23.3 90 90 S 3 6 29.88 1012 10 16 0.00 0.00
7:31 am 07:31 Mostly Cloudy 77 25 74 23.3 90 90 SSE 7 11 29.90 1012 10 16 0.00 0.00
7:53 am 07:53 Mostly Cloudy 78 25.6 74 23.3 87 87 ESE 3 6 29.90 1013 10 16 0.00 0.00
8:02 am 08:02 Mostly Cloudy with Heavy Rain 77 25 73 22.8 88 88 VRB 3 6 29.91 1013 1 1 0.10 2.54
8:14 am 08:14 Cloudy with Light Rain 79 26.1 74 23.3 85 85 SSW 3 6 29.91 1013 2 3 0.15 3.81
8:24 am 08:24 Mostly Cloudy with Heavy Rain 75 23.9 72 22.2 90 90 S 18 30 29.93 1013 2 2 0.26 6.60
8:32 am 08:32 Cloudy with Heavy Rain 74 23.3 70 21.1 87 87 SSW 12 19 29.94 1014 1 1 0.47 11.94
8:53 am 08:53 Cloudy with Heavy Rain 74 23.3 72 22.2 94 94 S 6 9 29.93 1014 2 3 0.66 16.76
8:57 am 08:57 Cloudy with Light Rain 74 23.3 72 22.2 94 94 SSE 6 9 29.93 1013 3 5 0.01 0.13
9:53 am 09:53 Cloudy with Rain 76 24.4 72 22.2 88 88 SSW 10 17 29.96 1014 3 5 0.02 0.51
10:53 am 10:53 Cloudy with Light Rain 77 25 74 23.3 90 90 SSW 7 11 29.96 1015 10 16 0.03 0.76
11:53 am 11:53 Cloudy with Light Rain 78 25.6 75 23.9 90 90 WSW 5 7 29.95 1014 10 16 0.01 0.25
12:53 pm 12:53 Cloudy 79 26.1 75 23.9 88 88 SW 5 7 29.93 1014 10 16 0.01 0.25
1:53 pm 13:53 Cloudy 80 26.7 74 23.3 82 82 undefined N/A 29.92 1013 10 16 0.01 0.13
2:53 pm 14:53 Sunny 81 27.2 74 23.3 79 79 WSW 8 13 29.91 1013 10 16 0.01 0.13
3:53 pm 15:53 Mostly Sunny 82 27.8 74 23.3 77 77 SW 8 13 29.91 1013 10 16 0.01 0.13
4:53 pm 16:53 Mostly Cloudy 83 28.3 73 22.8 72 72 SW 6 9 29.90 1012 10 16 0.00 0.00
5:53 pm 17:53 Mostly Cloudy 82 27.8 72 22.2 72 72 SW 6 9 29.89 1012 10 16 0.00 0.00
6:53 pm 18:53 Sunny 82 27.8 74 23.3 77 77 S 6 9 29.88 1012 10 16 0.00 0.00
7:53 pm 19:53 Cloudy 80 26.7 74 23.3 82 82 Calm 29.89 1012 10 16 0.00 0.00
8:53 pm 20:53 Clear 78 25.6 75 23.9 90 90 SE 6 9 29.90 1012 10 16 0.00 0.00
9:53 pm 21:53 Clear 77 25 74 23.3 90 90 SE 5 7 29.92 1013 10 16 0.00 0.00
10:53 pm 22:53 Clear 76 24.4 74 23.3 94 94 SSE 5 7 29.93 1014 10 16 0.00 0.00
11:53 pm 23:53 Clear 76 24.4 73 22.8 91 91 SE 5 7 29.93 1014 10 16 0.00 0.00

Powered by AerisWeather